[[{"header":{"parameterUnit":"m.s-1","parameterCategory":1,"la1":30.2991,"la2":30.254,"lo1":-89.0895,"lo2":-89.0444,"dy":0.0017,"dx":0.0017,"nx":28,"ny":28,"refTime":"2024-05-08T03:00:00:Z","depth":0,"parameterNumber":2,"parameterNumberName":"U-component_of_WINDS"},"data":[0,0,0,0,0,0,0,0,0,0,0,0,0,0,0,0,0,0,0,0,0,0,0,0,0,0,0,0,0,0,0,0,0,0,0,0,0,0,0,0,0,0,0,0,0,0,0,0,0,0,0,0,0,0,0,0,0,0,1.4172,1.4173,0,1.4239,1.424,1.424,1.4229,1.4227,1.4226,1.4225,1.4292,1.4295,1.4298,0,0,0,0,0,0,0,0,0,0,0,0,0,1.4032,1.4034,1.4172,1.4173,1.4174,1.4239,1.424,1.4241,1.4229,1.4227,1.4226,1.4225,1.4291,1.4295,1.4298,0,0,0,0,0,0,0,0,0,0,0,0,0,1.4095,1.4035,1.4172,1.4176,1.4177,1.4239,1.424,1.4241,1.4229,1.4227,1.4226,1.4224,1.429,1.4294,1.4299,1.436,0,0,1.4312,1.4314,0,0,0,0,0,0,0,0,1.4091,1.41,1.4174,1.4176,1.4177,1.4224,1.4215,1.4281,1.423,1.4209,1.4225,1.4223,1.4271,1.4277,1.4293,1.4364,1.4366,1.4312,1.4315,1.4317,1.4318,0,0,0,0,0,0,0,1.4087,1.4097,1.4199,1.4176,1.4177,1.4173,1.418,1.4227,1.4249,1.4211,1.421,1.4218,1.4271,1.4289,1.4294,1.4367,1.4312,1.4316,1.4319,1.432,1.4489,1.4491,0,0,0,0,0,0,1.4082,1.4093,1.4196,1.4201,1.4129,1.4177,1.4185,1.421,1.4249,1.4253,1.422,1.4218,1.4282,1.4289,1.4297,1.437,1.4317,1.4321,1.4323,1.4487,1.449,1.4492,0,0,0,0,0,0,1.4079,1.4091,1.4194,1.4147,1.416,1.4181,1.421,1.4213,1.423,1.4255,1.4259,1.4234,1.4281,1.4291,1.4344,1.4372,1.4323,1.4327,1.4485,1.4488,1.4491,1.4517,0,0,0,0,0,0,1.4075,1.409,1.4115,1.4148,1.4162,1.4241,1.4212,1.4215,1.4238,1.4236,1.427,1.4273,1.4281,1.4338,1.4348,1.4377,1.433,1.4483,1.4486,1.449,1.4514,1.452,1.4526,0,0,0,0,0,1.407,1.412,1.4116,1.4128,1.4193,1.4243,1.4251,1.4258,1.424,1.4264,1.428,1.4272,1.4367,1.4343,1.4355,1.4385,1.4481,1.4485,1.4489,1.4511,1.4519,1.4526,0,0,0,0,0,0,1.4089,1.4124,1.412,1.4182,1.421,1.4241,1.4271,1.4267,1.43,1.4296,1.4304,1.4312,1.4365,1.4381,1.4354,1.4446,1.4421,1.4428,1.4434,1.4442,1.4448,1.4442,1.4334,0,0,0,0,0,1.4101,1.4139,1.4167,1.4219,1.4233,1.425,1.4271,1.4275,1.4303,1.4314,1.4334,1.4361,1.4397,1.442,1.4455,1.4516,1.4522,1.4543,1.4549,1.4554,1.4559,1.459,1.4599,1.4506,1.4506,1.4506,0,0,1.4125,1.4149,1.4172,1.4223,1.4245,1.4282,1.4259,1.4301,1.4328,1.4321,1.4372,1.4387,1.4418,1.4475,1.4501,1.4489,1.4586,1.4559,1.4563,1.4566,1.4596,1.4604,1.4612,1.4509,1.4508,1.4508,0,0,1.4188,1.421,1.4255,1.4277,1.431,1.432,1.4331,1.4362,1.4372,1.4424,1.4418,1.445,1.4512,1.4534,1.4553,1.4622,1.4615,1.4633,1.4665,1.4695,1.4702,1.4709,1.4731,1.474,1.4638,1.4638,1.4638,0,1.4213,1.4271,1.4279,1.432,1.4342,1.4336,1.4381,1.4401,1.4443,1.4458,1.4444,1.452,1.4541,1.4602,1.4618,1.4635,1.4646,1.4629,1.4701,1.4707,1.4713,1.4735,1.4744,1.464,1.464,1.464,1.464,0,1.43,1.4339,1.4372,1.4412,1.4437,1.448,1.4493,1.4518,1.4518,1.453,1.4581,1.4606,1.4644,1.4659,1.466,1.4719,1.4711,1.4699,1.4674,1.4724,1.4744,1.4753,1.4643,1.4642,1.4642,1.4641,0,0,1.4377,1.442,1.4432,1.4449,1.4484,1.4514,1.4556,1.4593,1.4613,1.4642,1.4676,1.4728,1.4716,1.4738,1.4742,1.4768,1.4819,1.4753,1.4754,1.4763,1.4883,1.489,1.49,1.4815,1.4817,1.4818,1.4879,0,1.4442,1.4516,1.4523,1.4589,1.4624,1.4619,1.4655,1.4679,1.4691,1.4722,1.4735,1.477,1.4754,1.4767,1.4793,1.4807,1.4843,1.4803,1.4845,1.4846,1.4836,1.4911,1.4919,1.4976,1.4888,1.4889,1.489,0,1.4527,1.4558,1.4627,1.4655,1.4671,1.4703,1.4736,1.4767,1.4794,1.48,1.4823,1.4823,1.4864,1.4838,1.4894,1.4867,1.4884,1.4894,1.4896,1.4899,1.487,1.4914,1.4995,1.5002,1.4903,1.4902,1.4901,0,1.4574,1.4633,1.4682,1.4697,1.4732,1.4754,1.4769,1.4794,1.4816,1.4845,1.4858,1.4892,1.491,1.4936,1.4943,1.4925,1.4998,1.4974,1.5003,1.5003,1.5018,1.5017,1.5101,1.5032,1.5032,1.5032,1.5032,0,1.4645,1.4687,1.4703,1.4732,1.4779,1.4786,1.4831,1.4845,1.4868,1.4899,1.4896,1.4925,1.4935,1.4965,1.4972,1.5016,1.5024,1.5029,1.503,1.5029,1.5028,1.5039,1.5035,1.5034,1.5034,1.5033,1.5033,0,1.4704,1.4717,1.4769,1.4797,1.4805,1.4838,1.4861,1.4889,1.49,1.4939,1.4949,1.4966,1.5001,1.5012,1.5055,1.5059,1.5109,1.5108,1.51,1.51,1.5128,1.5124,1.5221,1.5233,1.5158,1.5159,1.5159,0,1.4748,1.478,1.4811,1.4832,1.4848,1.4882,1.4903,1.4912,1.4934,1.4966,1.4989,1.5024,1.5052,1.5109,1.5124,1.5156,1.5154,1.5186,1.5159,1.5155,1.5152,1.5149,1.5152,1.519,1.5191,1.5192,1.5192,0,1.4823,1.4827,1.4859,1.4892,1.4917,1.4944,1.4969,1.4986,1.4998,1.5022,1.5059,1.508,1.5123,1.5157,1.519,1.5204,1.5199,1.5201,1.5209,1.5207,1.52,1.5202,1.5112,1.5198,1.5198,1.5197,1.5197,1.5197,1.4874,1.4902,1.4928,1.4962,1.4982,1.5006,1.5032,1.5046,1.5077,1.5112,1.5115,1.5154,1.5178,1.522,1.5236,1.5266,1.5256,1.5269,1.5271,1.5274,1.5275,1.5197,1.5272,1.5272,1.5272,1.5271,1.5271,0,1.4947,1.4964,1.4995,1.5031,1.5057,1.5051,1.5079,1.5101,1.5135,1.5158,1.5186,1.5226,1.5259,1.5276,1.5308,1.5328,1.5326,1.5336,1.5334,1.5337,1.5283,1.5272,1.5336,1.5336,1.5336,1.5336,1.5336,1.5336,1.4989,1.5034,1.5041,1.5096,1.5111,1.5149,1.5165,1.5186,1.5204,1.5249,1.5276,1.5288,1.5308,1.5341,1.537,1.5374,1.5385,1.5396,1.5398,1.5347,1.5341,1.5334,1.5324,1.5398,1.5399,1.545,1.545,1.545]},{"header":{"parameterUnit":"m.s-1","parameterCategory":1,"la1":30.2991,"la2":30.254,"lo1":-89.0895,"lo2":-89.0444,"dy":0.0017,"dx":0.0017,"nx":28,"ny":28,"refTime":"2024-05-08T03:00:00:Z","depth":0,"parameterNumber":3,"parameterNumberName":"V-component_of_WINDS"},"data":[0,0,0,0,0,0,0,0,0,0,0,0,0,0,0,0,0,0,0,0,0,0,0,0,0,0,0,0,0,0,0,0,0,0,0,0,0,0,0,0,0,0,0,0,0,0,0,0,0,0,0,0,0,0,0,0,0,0,5.3821,5.3822,0,5.3893,5.3893,5.3894,5.3876,5.3874,5.3873,5.3872,5.3939,5.3942,5.3945,0,0,0,0,0,0,0,0,0,0,0,0,0,5.3661,5.3664,5.3821,5.3822,5.3823,5.3892,5.3893,5.3894,5.3876,5.3874,5.3873,5.3871,5.3938,5.3941,5.3945,0,0,0,0,0,0,0,0,0,0,0,0,0,5.3731,5.3665,5.3821,5.3822,5.3823,5.3892,5.3893,5.3895,5.3876,5.3874,5.3872,5.387,5.3937,5.3941,5.3946,5.4016,0,0,5.396,5.3962,0,0,0,0,0,0,0,0,5.3727,5.3737,5.3821,5.3822,5.3823,5.3873,5.3862,5.3935,5.3877,5.3856,5.3872,5.3869,5.3918,5.3924,5.3942,5.4019,5.4022,5.396,5.3963,5.3965,5.3966,0,0,0,0,0,0,0,5.3722,5.3734,5.3849,5.3822,5.3824,5.3817,5.3824,5.3875,5.3898,5.3858,5.3856,5.3866,5.3918,5.3938,5.3944,5.4023,5.396,5.3964,5.3967,5.3969,5.4159,5.4161,0,0,0,0,0,0,5.3717,5.373,5.3847,5.3851,5.3769,5.3821,5.383,5.3859,5.3897,5.3901,5.3867,5.3864,5.3931,5.3938,5.3946,5.4029,5.3965,5.3969,5.3972,5.4157,5.416,5.4162,0,0,0,0,0,0,5.3714,5.3728,5.3844,5.379,5.3804,5.3826,5.3859,5.3862,5.3881,5.3905,5.3908,5.3883,5.3929,5.3939,5.3999,5.4031,5.3971,5.3976,5.4154,5.4158,5.4161,5.4198,0,0,0,0,0,0,5.3709,5.3727,5.3756,5.3791,5.3807,5.3898,5.3861,5.3865,5.389,5.3887,5.3921,5.3924,5.3929,5.3992,5.4003,5.4037,5.3979,5.4151,5.4156,5.416,5.4194,5.4202,5.4209,0,0,0,0,0,5.3704,5.3762,5.3757,5.3771,5.3844,5.39,5.3909,5.3915,5.3893,5.392,5.3935,5.3923,5.4026,5.3998,5.4011,5.4046,5.4149,5.4154,5.4159,5.419,5.42,5.4209,0,0,0,0,0,0,5.3728,5.3767,5.3762,5.3834,5.3864,5.3897,5.3932,5.3926,5.3961,5.3956,5.396,5.3968,5.4028,5.4043,5.4011,5.4115,5.4084,5.4092,5.4103,5.4113,5.4121,5.4115,5.3983,0,0,0,0,0,5.3742,5.3787,5.3817,5.3878,5.3893,5.391,5.3934,5.3937,5.3967,5.3979,5.3998,5.4026,5.4064,5.409,5.4127,5.4196,5.4201,5.4226,5.4234,5.424,5.4246,5.4282,5.4293,5.4179,5.4179,5.4179,0,0,5.3771,5.3798,5.3825,5.3883,5.3907,5.395,5.3921,5.3968,5.3999,5.3985,5.4043,5.4058,5.4089,5.4153,5.4182,5.4167,5.4279,5.4247,5.4251,5.4254,5.4288,5.4299,5.4308,5.4182,5.4182,5.4181,0,0,5.3846,5.3871,5.3924,5.3948,5.3985,5.3996,5.4008,5.4042,5.4052,5.411,5.41,5.4136,5.4203,5.4225,5.4245,5.4327,5.4316,5.4339,5.4378,5.4413,5.4422,5.443,5.4457,5.4467,5.4345,5.4345,5.4345,0,5.3876,5.3943,5.3951,5.3999,5.4024,5.4015,5.4067,5.4089,5.4135,5.4151,5.4134,5.4217,5.4238,5.4306,5.4326,5.4343,5.4355,5.4334,5.4421,5.4428,5.4436,5.4462,5.4472,5.4348,5.4347,5.4347,5.4347,0,5.3978,5.4024,5.4062,5.4109,5.4137,5.4187,5.42,5.4228,5.4227,5.4239,5.4296,5.4321,5.4362,5.4378,5.4378,5.4446,5.4435,5.442,5.4388,5.4449,5.4473,5.4483,5.4351,5.435,5.4349,5.4349,0,0,5.407,5.412,5.4133,5.4153,5.4193,5.4227,5.4275,5.4317,5.434,5.4372,5.441,5.4467,5.4452,5.4475,5.4476,5.4507,5.4568,5.4487,5.4488,5.45,5.4642,5.4653,5.4664,5.4561,5.4563,5.4565,5.4639,0,5.4146,5.4234,5.4241,5.4318,5.436,5.4352,5.4393,5.442,5.4432,5.4467,5.4479,5.4519,5.4497,5.4511,5.4541,5.4554,5.4596,5.4549,5.4595,5.4596,5.4586,5.4677,5.4689,5.4758,5.4649,5.465,5.4651,0,5.4248,5.4284,5.4366,5.4398,5.4415,5.4453,5.4491,5.4525,5.4555,5.4561,5.4586,5.4583,5.463,5.4598,5.4661,5.4629,5.4648,5.4657,5.4659,5.4663,5.4627,5.4681,5.478,5.4789,5.4667,5.4666,5.4665,0,5.4304,5.4373,5.443,5.4448,5.4488,5.4514,5.4531,5.4559,5.4583,5.4615,5.463,5.4667,5.4687,5.4715,5.4721,5.4697,5.4783,5.4752,5.4787,5.4787,5.4804,5.4803,5.4905,5.4819,5.4819,5.4819,5.4819,0,5.4388,5.4438,5.4456,5.4491,5.4546,5.4553,5.4606,5.4621,5.4646,5.4682,5.4677,5.471,5.4717,5.4751,5.4756,5.4806,5.4815,5.4819,5.482,5.4819,5.4818,5.483,5.4825,5.4822,5.4821,5.482,5.482,0,5.446,5.4475,5.4536,5.4569,5.4578,5.4617,5.4643,5.4675,5.4687,5.4732,5.4743,5.476,5.4799,5.4809,5.4855,5.4859,5.4917,5.4914,5.4908,5.4907,5.4941,5.4937,5.5054,5.5068,5.4974,5.4975,5.4976,0,5.4512,5.455,5.4587,5.4612,5.463,5.467,5.4695,5.4703,5.4729,5.4765,5.4792,5.4831,5.4863,5.4926,5.4941,5.4976,5.4973,5.5011,5.4978,5.4975,5.4971,5.4968,5.4971,5.5017,5.5018,5.5019,5.5019,0,5.4601,5.4607,5.4644,5.4684,5.4714,5.4745,5.4775,5.4794,5.4806,5.4835,5.4876,5.4901,5.4949,5.4987,5.5023,5.5037,5.5029,5.503,5.504,5.5039,5.5033,5.5034,5.4923,5.5027,5.5026,5.5026,5.5025,5.5025,5.4664,5.4697,5.4728,5.4769,5.4792,5.482,5.4851,5.4867,5.4902,5.4943,5.4945,5.499,5.5016,5.5063,5.508,5.5113,5.5101,5.5115,5.5119,5.5122,5.5124,5.5029,5.512,5.5119,5.5119,5.5119,5.5119,0,5.4752,5.4771,5.4809,5.4851,5.4883,5.4875,5.4907,5.4933,5.4973,5.5,5.5031,5.5078,5.5115,5.5133,5.5168,5.5191,5.5188,5.52,5.5197,5.5201,5.5134,5.5121,5.5202,5.5202,5.5202,5.5202,5.5202,5.5202,5.4801,5.4856,5.4865,5.493,5.4948,5.4994,5.5012,5.5036,5.5057,5.511,5.5141,5.5154,5.5176,5.5213,5.5245,5.525,5.5262,5.5275,5.5277,5.5214,5.5206,5.5197,5.5185,5.5278,5.5278,5.5341,5.5342,5.5342]}]]